Regional Weather Roundup
Issued by NWS Jackson, KY

Home | Current Version | Previous Version | Graphics & Text | Print | Product List | Glossary On
Versions: 1 2 3 4 5 6 7 8 9 10 11 12 13 14 15 16 17 18 19 20 21 22 23 24 25 26 27
000
ASUS43 KJKL 270810
RWRJKL

EAST KENTUCKY HOURLY WEATHER ROUNDUP
NATIONAL WEATHER SERVICE JACKSON KY
400 AM EDT THU APR 27 2017

NOTE: "FAIR" INDICATES FEW OR NO CLOUDS BELOW 12,000 FEET WITH
NO SIGNIFICANT WEATHER AND/OR OBSTRUCTIONS TO VISIBILITY.

* THESE REPORTS ARE NOT UNDER NWS QUALITY CONTROL AND MAY NOT
  REPORT WEATHER SUCH AS PRECIPITATION AND FOG.

KYZ079-080-083-085-087-088-110-112-115-119-120-270900
...EASTERN KENTUCKY...

CITY           SKY/WX    TMP DP  RH WIND       PRES   REMARKS
JACKSON        PTCLDY    66  56  70 CALM      29.66F
LONDON         CLOUDY    71  52  50 S7G18     29.67S
SOMERSET*      CLOUDY    68  54  60 S10       29.68R
MONTICELLO*    CLOUDY    71  57  61 S14G29    29.66R
WILLIAMSBURG*  CLOUDY    68  55  64 S6        29.66F
MIDDLESBORO*   CLOUDY    68  56  66 S5        29.69R
HARLAN APT*    SUNNY     64  54  68 CALM      29.70F
PIKE CO APT*     N/A     67  53  61 SE8       29.68F
BIG SANDY APT* SUNNY     69  54  59 S7        29.67F
MOREHEAD APT*  SUNNY     70  54  56 SW12      29.66R
$$

KYZ035-036-041-042-044-050-067-078-099-270900
...CENTRAL KENTUCKY...

CITY           SKY/WX    TMP DP  RH WIND       PRES   REMARKS
MT STERLING*   PTCLDY    66  55  68 SW5       29.65S
FLEMING/MASON* PTCLDY    64  55  72 SW6       29.64S
DANVILLE*      CLOUDY    68  55  64 SW8       29.66R
LEXINGTON      CLOUDY    67  56  67 S10       29.63F
FRANKFORT      CLOUDY    69  55  60 S8        29.60S
LOUISVILLE     CLOUDY    66  54  65 SW10      29.63R
LEBANON*         N/A     72  57  60 S14G22    29.63R
GLASGOW*       RAIN      62  62 100 NW3       29.63F
BOWLING GREEN  HVY RAIN  61  61 100 E12       29.60F FOG
$$

KYZ091>093-OHZ055-061-077-WVZ005-015-034-035-042-270900
...SOUTHERN OHIO/WEST VIRGINIA...

CITY           SKY/WX    TMP DP  RH WIND       PRES   REMARKS
COVINGTON      CLOUDY    69  56  62 S14G20    29.56F
COLUMBUS       CLOUDY    69  53  56 S6        29.61S
DAYTON         MOCLDY    70  54  56 S14       29.56F
WILMINGTON     CLOUDY    69  57  65 S16       29.59F
HUNTINGTON     CLEAR     65  54  67 SE5       29.64F
CHARLESTON     CLEAR     60  55  83 CALM      29.69R
PINEVILLE*     CLEAR     55  53  95 MISG      29.82S
BECKLEY        CLEAR     62  54  74 SE10      29.80S
BLUEFIELD      CLEAR     62  51  67 SW13      29.83R
LOGAN CO APT*    N/A     70  54  56 VRB6G17   29.72S
$$

VAZ002-007-008-TNZ017-027-036-066-071-270900
...SOUTHWEST VIRGINIA/EAST TENNESSEE...

CITY           SKY/WX    TMP DP  RH WIND       PRES   REMARKS
WISE*          CLEAR     63  52  67 S8        29.79F
JONESVILLE*      N/A     57  55  94 CALM      29.74F
ABINGDON*      CLEAR     60  55  83 CALM      29.80F
BRISTOL        CLEAR     60  54  80 E3        29.75F
MORRISTOWN*      N/A     59  57  94 CALM      29.70F
SEVIERVILLE*   SUNNY     63  54  72 E5        29.67F
KNOXVILLE      CLOUDY    69  53  56 SW16      29.71R
LAFOLLETTE*    SUNNY     72  54  53 SW15G25   29.73R
OAK RIDGE      CLOUDY    70  55  59 VRB6      29.73S
CROSSVILLE     CLOUDY    65  55  70 S8G16     29.73S
NASHVILLE      RAIN      64  62  93 SE10      29.61F FOG
$$

...KEY TO REMARKS...
VSB - VISIBILITY IN MILES
WCI - WIND CHILL INDEX
HX  - HEAT INDEX

$$




USA.gov is the U.S. government's official web portal to all federal, state and local government web resources and services.